Tracking 23762 objects as of 19-Oct-2021
HD Live streaming from Space Station
objects crossing your sky now

CZ-3C DEB

Track CZ-3C DEB now!


NORAD ID: 40174
Int'l Code: 2010-057AC
Perigee: 579.1 km
Apogee: 34,624.5 km
Inclination: 19.8 °
Period: 615.7 minutes
Semi major axis: 23972 km
RCS: Unknown
Launch date: October 31, 2010
Source: People's Republic of China (PRC)
Launch site: Xichang Space Center, China (XSC)

Note: This is SATELLITE DEBRIS
aabbcc
Your satellite tracking list
Your tracking list is empty




NASA's NSSDC Master Catalog

Two Line Element Set (TLE):
1 40174U 10057AC  21291.06560206  .00000219  00000-0  45027-2 0  9991
2 40174  19.8240 224.7083 7100847  12.6261  14.2113  2.33897582 60558
Source of the keplerian elements: AFSPC